Location: Kra?nica
(53.4833°N, 14.6167°E)
Time: 21:26:38
(UTC+00:00)

Cosmos 2242 Rocket - Pass Details

Date: 23 May 2024
Orbit: 617 x 647 km, 82.5° (Epoch: 20 June)

Event Time Altitude Azimuth Distance (km) Brightness Sun altitude
Exits shadow 00:53:32 - 167° (SSE) 2,047 5.8 -11.8°
Reaches altitude 10° 00:53:39 10° 166° (SSE) 2,001 5.7 -11.8°
Maximum altitude 00:57:54 46° 94° (E) 849 4.4 -11.5°
Drops below altitude 10° 01:02:13 10° 21° (NNE) 2,036 7.7 -11.2°
Sets 01:04:32 0° 16° (NNE) 2,955 8.8 -11.0°
